Location: Tr�vern
(48.0333°N, 4.6000°W)
Time: 18:10:33
(UTC+00:00)

Aureole 1 Rocket - Pass Details

Date: 14 July 2020
Orbit: 377 x 1380 km, 73.9° (Epoch: 12 August)

Event Time Altitude Azimuth Distance (km) Brightness Sun altitude
Exits shadow 02:26:04 24° 192° (SSW) 1,406 4.3 -15.2°
Maximum altitude 02:28:58 77° 110° (ESE) 793 3.6 -15.0°
Drops below altitude 10° 02:35:05 10° 25° (NNE) 2,695 7.7 -14.4°
Sets 02:38:01 0° 24° (NNE) 3,815 9.0 -14.2°
